|
Cosmos 2082 Rocket - Orbit
|
Martz Observatory;
11:35:30
| Home | Info | Passes |
|
View from above orbital plane
|
View from above satellite
|
Ground track
|
The orbit data is extracted from the following two-line orbital elements,
1 20625U 90046B 13139.28467757 .00000349 00000-0 20645-3 0 4426
2 20625 071.0008 035.8568 0015351 216.9916 292.4013 14.14471669187142
| Epoch (UTC): | 19 May 2013 06:49:56 |
| Eccentricity: | 0.0015351 |
| inclination: | 71.0008° |
| perigee height: | 833 km |
| apogee height: | 855 km |
| right ascension of ascending node: | 35.8568° |
| argument of perigee: | 216.9916° |
| revolutions per day: | 14.14471669 |
| mean anomaly at epoch: | 292.4013° |
| orbit number at epoch: | 18714 |
The dashed part of the orbit path shows where the satellite is in the earth's shadow,
|
|